�N����,����,�~����,�C��,���x,�C��,����,���ϕ���,�ő�u�ԕ���,�ő厞����,���˗�,�I�_���x,�n�����x,�ő啗���N��,DTYPE
"23/09/11","00:10",0.0,24.1,93.9,1005.5,341.4,0.7,1.2,343.9,0.00,23.1,25.3,"00:01:12",1
"23/09/11","00:20",0.0,23.9,94.0,1005.7,287.1,0.3,0.9,297.1,0.00,22.9,25.3,"00:13:12",1
"23/09/11","00:30",0.0,24.0,94.1,1005.2,311.8,0.6,1.2,312.3,0.00,23.0,25.3,"00:25:28",1
"23/09/11","00:40",0.0,24.0,94.2,1004.8,335.2,0.5,1.0,2.7,0.00,23.0,25.3,"00:39:28",1
"23/09/11","00:50",0.0,23.8,94.2,1005.0,322.4,0.6,1.1,326.5,0.00,22.9,25.2,"00:44:00",1
"23/09/11","01:00",0.0,23.7,94.4,1004.8,227.8,0.5,1.0,242.1,0.00,22.8,25.4,"00:56:32",1
"23/09/11","01:10",0.0,23.8,94.5,1005.0,327.2,0.6,1.1,347.3,0.00,22.9,25.2,"01:08:48",1
"23/09/11","01:20",0.0,23.7,94.5,1005.0,333.2,0.6,1.3,343.6,0.00,22.8,25.0,"01:10:40",1
"23/09/11","01:30",0.0,23.7,94.6,1004.5,325.2,0.6,1.2,335.7,0.00,22.8,25.1,"01:25:36",1
"23/09/11","01:40",0.0,23.6,94.7,1005.0,330.5,0.6,1.0,328.1,0.00,22.7,25.0,"01:36:16",1
"23/09/11","01:50",0.0,23.5,94.8,1004.8,305.7,0.3,0.6,343.9,0.00,22.7,25.0,"01:41:52",1
"23/09/11","02:00",0.0,23.5,95.0,1005.0,294.8,0.3,1.0,339.3,0.00,22.7,25.1,"01:59:36",1
"23/09/11","02:10",0.0,23.6,95.0,1005.2,333.2,0.6,1.2,329.9,0.00,22.8,25.1,"02:00:32",1
"23/09/11","02:20",0.0,23.7,95.1,1005.0,334.1,0.6,1.4,348.6,0.00,22.9,25.1,"02:18:56",1
"23/09/11","02:30",0.0,23.7,95.1,1005.2,335.7,0.6,1.1,341.7,0.00,22.9,25.0,"02:21:12",1
"23/09/11","02:40",0.0,23.8,95.2,1005.0,329.7,0.6,1.0,329.4,0.00,23.0,25.0,"02:37:36",1
"23/09/11","02:50",0.0,23.8,95.2,1005.2,310.5,0.5,1.1,336.0,0.00,23.0,25.2,"02:45:28",1
"23/09/11","03:00",0.0,23.8,95.2,1004.8,317.4,0.5,1.2,333.2,0.00,23.0,25.0,"02:57:04",1
"23/09/11","03:10",0.0,23.9,95.3,1005.0,345.0,0.5,1.3,329.9,0.00,23.1,25.2,"03:02:56",1
"23/09/11","03:20",0.0,23.8,95.3,1004.8,314.9,0.2,0.8,354.9,0.00,23.0,25.0,"03:11:12",1
"23/09/11","03:30",0.0,23.7,95.4,1005.0,245.4,0.3,1.0,272.9,0.00,23.0,25.2,"03:29:04",1
"23/09/11","03:40",0.0,23.7,95.4,1004.8,300.1,0.6,1.2,271.4,0.00,23.0,25.0,"03:35:28",1
"23/09/11","03:50",0.0,23.7,95.5,1004.8,307.1,0.6,1.4,310.1,0.00,23.0,25.1,"03:49:44",1
"23/09/11","04:00",0.0,23.7,95.5,1004.8,310.8,0.7,1.4,333.5,0.00,23.0,25.1,"03:52:48",1
"23/09/11","04:10",0.0,23.5,95.5,1004.8,303.9,0.5,0.8,256.2,0.00,22.8,24.9,"04:00:56",1
"23/09/11","04:20",0.0,23.5,95.7,1004.8,334.8,0.6,1.1,347.7,0.00,22.8,24.9,"04:16:40",1
"23/09/11","04:30",0.0,23.4,95.7,1005.0,338.3,0.3,1.0,343.0,0.00,22.7,24.7,"04:20:08",1
"23/09/11","04:40",0.0,23.4,95.8,1004.8,268.4,0.3,0.9,341.3,0.00,22.7,24.9,"04:32:32",1
"23/09/11","04:50",0.0,23.4,95.8,1004.5,281.8,0.5,0.9,334.4,0.00,22.7,24.7,"04:43:04",1
"23/09/11","05:00",0.0,23.4,95.8,1004.8,316.0,0.6,1.4,334.8,0.00,22.7,24.7,"04:58:00",1
"23/09/11","05:10",0.0,23.4,95.8,1004.5,317.2,0.3,1.2,343.7,0.00,22.7,24.9,"05:01:52",1
"23/09/11","05:20",0.0,23.3,95.9,1004.5,288.9,0.5,1.0,295.7,0.00,22.6,24.8,"05:18:32",1
"23/09/11","05:30",0.0,23.3,96.0,1004.8,326.6,0.6,0.9,344.7,0.00,22.7,25.0,"05:20:40",1
"23/09/11","05:40",0.0,23.2,96.0,1004.3,318.9,0.6,1.1,338.5,0.00,22.6,24.7,"05:36:32",1
"23/09/11","05:50",0.0,23.2,96.0,1004.8,295.8,0.5,1.3,343.6,0.00,22.6,24.9,"05:40:48",1
"23/09/11","06:00",0.0,23.1,96.1,1004.5,335.1,0.6,1.0,329.8,0.00,22.5,24.8,"05:52:40",1
"23/09/11","06:10",0.0,23.2,96.1,1004.8,251.8,0.3,0.9,228.4,0.00,22.6,24.6,"06:01:52",1
"23/09/11","06:20",0.0,23.4,96.1,1005.0,281.1,0.6,1.1,249.3,0.00,22.8,24.7,"06:15:12",1
"23/09/11","06:30",0.0,23.5,96.1,1005.5,270.4,0.6,1.3,239.0,0.00,22.9,24.8,"06:26:48",1
"23/09/11","06:40",0.0,23.5,96.2,1005.5,314.7,0.6,1.6,332.9,0.00,22.9,24.7,"06:37:36",1
"23/09/11","06:50",0.0,23.7,96.2,1005.5,327.9,0.8,1.4,341.6,0.00,23.1,24.6,"06:40:08",1
"23/09/11","07:00",0.0,23.6,96.2,1005.2,287.2,0.8,1.6,309.6,0.02,23.0,24.9,"06:58:24",1
"23/09/11","07:10",0.0,24.4,96.4,1005.2,338.9,0.7,1.8,347.2,0.10,23.8,24.7,"07:00:16",1
"23/09/11","07:20",0.0,24.8,96.1,1004.8,272.4,0.3,1.1,305.7,0.08,24.2,24.8,"07:19:20",1
"23/09/11","07:30",0.0,25.5,96.1,1004.8,304.1,0.6,1.3,316.9,0.19,24.9,24.8,"07:20:48",1
"23/09/11","07:40",0.0,26.0,95.1,1004.3,284.5,0.5,1.4,257.3,0.21,25.2,24.8,"07:39:12",1
"23/09/11","07:50",0.0,25.9,94.4,1004.5,216.7,0.8,1.8,211.7,0.22,25.0,24.8,"07:41:04",1
"23/09/11","08:00",0.0,26.3,93.7,1005.2,14.7,0.7,1.8,23.9,0.25,25.2,24.8,"07:56:00",1
"23/09/11","08:10",0.0,26.9,92.1,1004.8,45.4,0.5,1.4,336.2,0.20,25.5,24.6,"08:09:44",1
"23/09/11","08:20",0.0,27.4,91.2,1005.0,111.1,0.7,1.8,112.1,0.18,25.9,24.8,"08:14:08",1
"23/09/11","08:30",0.0,27.9,88.2,1005.5,130.1,0.8,1.8,124.1,0.16,25.8,24.9,"08:25:12",1
"23/09/11","08:40",0.0,28.9,82.3,1005.2,126.9,0.8,2.0,163.0,0.22,25.6,24.8,"08:36:08",1
"23/09/11","08:50",0.0,30.0,74.6,1005.5,97.0,0.7,2.1,100.5,0.23,25.0,24.8,"08:43:44",1
"23/09/11","09:00",0.0,30.3,72.6,1005.5,104.1,0.7,2.1,122.7,0.24,24.9,24.9,"08:58:32",1
"23/09/11","09:10",0.0,30.7,68.9,1006.0,111.3,1.2,3.1,95.8,0.28,24.4,24.9,"09:09:04",1
"23/09/11","09:20",0.0,29.8,69.5,1006.0,135.6,1.1,2.9,142.4,0.13,23.7,25.0,"09:15:36",1
"23/09/11","09:30",0.0,29.3,70.1,1005.5,139.6,1.2,2.4,127.0,0.11,23.3,25.1,"09:25:20",1
"23/09/11","09:40",0.0,29.3,71.2,1005.5,163.3,1.5,3.1,181.0,0.13,23.6,24.8,"09:34:00",1
"23/09/11","09:50",0.0,29.9,68.8,1005.5,191.1,1.7,5.5,219.8,0.25,23.6,25.1,"09:45:12",1
"23/09/11","10:00",0.0,30.7,67.3,1005.5,163.3,1.1,2.7,218.3,0.32,24.0,25.0,"09:56:40",1
"23/09/11","10:10",0.0,31.2,63.9,1005.7,187.3,2.2,4.5,219.6,0.44,23.6,25.1,"10:04:56",1
"23/09/11","10:20",0.0,30.8,63.4,1005.7,165.7,1.3,2.8,215.2,0.25,23.1,25.2,"10:15:12",1
"23/09/11","10:30",0.0,30.3,64.6,1005.5,169.8,1.7,3.4,206.1,0.17,22.9,25.1,"10:28:32",1
"23/09/11","10:40",0.0,29.4,64.4,1005.0,200.2,2.2,4.5,210.2,0.07,22.0,25.4,"10:39:04",1
"23/09/11","10:50",0.0,29.3,65.8,1004.8,203.6,2.2,4.7,223.1,0.04,22.3,25.0,"10:40:16",1
"23/09/11","11:00",0.0,29.0,67.7,1004.1,210.6,2.2,4.8,224.2,0.04,22.5,25.2,"10:55:04",1
"23/09/11","11:10",0.2,28.6,71.6,1003.8,219.9,2.5,5.2,225.0,0.06,23.0,25.2,"11:02:32",1
"23/09/11","11:20",0.4,27.8,76.0,1003.6,202.7,1.2,2.6,185.4,0.04,23.2,25.4,"11:10:40",1
"23/09/11","11:30",0.8,27.3,79.1,1004.3,209.3,1.5,3.7,213.1,0.12,23.4,25.3,"11:20:08",1
"23/09/11","11:40",0.2,27.0,81.4,1004.5,206.2,1.3,2.8,228.7,0.17,23.6,25.3,"11:35:12",1
"23/09/11","11:50",0.2,26.5,81.7,1004.8,215.6,2.2,3.9,218.6,0.25,23.2,25.3,"11:40:40",1
"23/09/11","12:00",0.0,26.6,82.9,1004.5,210.7,1.3,5.4,219.3,0.17,23.5,25.2,"11:50:40",1
"23/09/11","12:10",0.0,26.9,84.0,1004.1,118.9,0.8,2.0,147.9,0.23,24.0,25.2,"12:06:24",1
"23/09/11","12:20",0.0,27.0,83.7,1005.0,160.4,1.3,2.6,168.1,0.30,24.0,25.2,"12:16:48",1
"23/09/11","12:30",0.0,27.6,83.5,1003.6,156.1,1.2,3.6,144.2,0.41,24.6,25.3,"12:25:28",1
"23/09/11","12:40",0.0,28.3,81.6,1004.3,171.4,1.6,4.1,202.4,0.53,24.9,25.0,"12:39:04",1
"23/09/11","12:50",0.0,28.8,77.5,1005.0,182.7,2.0,3.7,203.9,0.53,24.5,25.5,"12:40:02",1
"23/09/11","13:00",0.0,28.9,76.1,1004.5,172.9,1.7,3.3,186.4,0.35,24.3,25.3,"12:50:48",1
"23/09/11","13:10",0.0,28.2,76.1,1005.0,214.1,1.8,4.5,211.1,0.18,23.6,25.6,"13:08:16",1
"23/09/11","13:20",0.0,27.6,76.5,1004.8,167.5,1.8,4.5,229.3,0.09,23.1,25.6,"13:12:16",1
"23/09/11","13:30",0.0,27.3,78.2,1004.5,141.6,1.3,2.8,139.9,0.09,23.2,25.4,"13:24:32",1
"23/09/11","13:40",0.0,27.0,79.6,1004.5,152.8,1.3,3.2,181.2,0.05,23.2,25.4,"13:32:08",1
"23/09/11","13:50",0.2,26.8,81.7,1004.3,135.7,1.0,2.8,187.7,0.01,23.4,25.6,"13:43:20",1
"23/09/11","14:00",0.2,26.4,83.7,1004.3,79.8,0.7,2.2,90.7,0.03,23.5,25.7,"13:52:08",1
"23/09/11","14:10",0.2,26.0,85.0,1004.5,60.7,0.6,1.7,29.0,0.02,23.3,25.5,"14:01:52",1
"23/09/11","14:20",0.8,25.4,86.1,1004.8,135.9,0.8,2.0,126.2,0.02,22.9,25.5,"14:16:08",1
"23/09/11","14:30",0.8,25.4,87.0,1004.5,53.8,0.5,1.8,110.9,0.03,23.1,25.4,"14:26:32",1
"23/09/11","14:40",0.8,25.3,87.8,1004.8,81.8,0.5,1.6,90.1,0.02,23.2,25.6,"14:30:40",1
"23/09/11","14:50",0.6,25.0,88.4,1004.8,109.1,0.6,1.7,194.1,0.01,23.0,25.5,"14:41:20",1
"23/09/11","15:00",0.6,24.9,89.1,1004.8,30.6,0.5,1.2,19.4,0.01,23.0,25.4,"14:56:40",1
"23/09/11","15:10",0.4,24.5,89.7,1004.8,53.2,0.6,1.9,19.4,0.01,22.7,25.5,"15:05:52",1
"23/09/11","15:20",0.4,24.4,90.3,1004.5,81.6,0.6,1.4,85.6,0.03,22.7,25.6,"15:10:08",1
"23/09/11","15:30",0.0,24.4,90.7,1005.0,86.2,0.6,1.7,110.3,0.04,22.8,25.3,"15:27:20",1
"23/09/11","15:40",0.0,24.5,91.0,1004.8,7.5,0.6,2.0,359.1,0.07,23.0,25.3,"15:35:36",1
"23/09/11","15:50",0.0,24.8,91.2,1004.5,36.1,0.3,1.2,13.8,0.12,23.3,25.3,"15:48:32",1
"23/09/11","16:00",0.0,25.0,91.3,1004.8,326.9,0.5,1.3,298.7,0.10,23.5,25.5,"15:54:16",1
"23/09/11","16:10",0.0,24.9,91.3,1004.5,314.7,0.5,1.2,310.6,0.08,23.4,25.6,"16:00:56",1
"23/09/11","16:20",0.0,24.9,91.3,1005.0,337.2,0.3,1.2,331.1,0.09,23.4,25.5,"16:19:52",1
"23/09/11","16:30",0.0,25.0,91.0,1005.0,319.2,0.5,1.2,338.0,0.08,23.5,25.3,"16:20:08",1
"23/09/11","16:40",0.0,25.1,91.1,1004.8,324.0,0.5,1.2,346.1,0.09,23.6,25.3,"16:38:16",1
"23/09/11","16:50",0.0,25.3,90.8,1005.0,326.8,0.8,1.6,327.4,0.09,23.7,25.4,"16:41:52",1
"23/09/11","17:00",0.0,25.5,90.5,1004.8,308.6,0.7,1.9,340.9,0.06,23.9,25.4,"16:59:52",1
"23/09/11","17:10",0.0,25.3,90.4,1005.0,323.3,1.0,1.6,336.2,0.05,23.7,25.4,"17:00:08",1
"23/09/11","17:20",0.0,25.3,90.2,1004.5,316.4,0.7,1.3,332.3,0.04,23.6,25.4,"17:10:02",1
"23/09/11","17:30",0.0,25.3,90.1,1004.5,339.9,1.1,2.0,348.5,0.02,23.6,25.5,"17:29:44",1
"23/09/11","17:40",0.0,25.2,90.2,1004.8,343.1,1.0,1.7,341.9,0.01,23.5,25.5,"17:33:44",1
"23/09/11","17:50",0.0,25.0,90.3,1004.5,327.0,0.8,1.4,340.1,0.00,23.3,25.4,"17:46:08",1
"23/09/11","18:00",0.0,24.7,90.6,1004.8,320.9,1.0,1.4,335.3,0.00,23.1,25.3,"17:56:08",1
"23/09/11","18:10",0.0,24.6,90.8,1005.0,302.9,1.0,1.6,325.4,0.00,23.0,25.4,"18:08:56",1
"23/09/11","18:20",0.0,24.5,91.1,1005.2,319.2,0.8,1.3,336.5,0.00,23.0,25.5,"18:17:20",1
"23/09/11","18:30",0.0,24.4,91.3,1005.2,329.1,0.8,1.4,342.0,0.00,22.9,25.4,"18:23:12",1
"23/09/11","18:40",0.0,24.3,91.5,1005.2,317.6,1.0,1.3,334.1,0.00,22.9,25.2,"18:34:00",1
"23/09/11","18:50",0.0,24.2,91.7,1005.7,284.9,0.7,1.0,264.3,0.00,22.8,25.3,"18:45:12",1
"23/09/11","19:00",0.0,24.2,91.9,1006.0,315.2,0.8,1.3,337.1,0.00,22.8,25.3,"18:50:48",1
"23/09/11","19:10",0.0,24.2,92.1,1005.7,326.8,1.0,1.8,324.0,0.00,22.9,25.3,"19:05:28",1
"23/09/11","19:20",0.0,24.1,92.3,1005.7,328.1,1.1,1.9,343.6,0.00,22.8,25.2,"19:17:44",1
"23/09/11","19:30",0.0,24.0,92.5,1006.0,316.5,0.8,1.8,313.7,0.00,22.7,25.5,"19:29:36",1
"23/09/11","19:40",0.0,24.0,92.7,1006.0,330.7,1.1,1.8,335.4,0.00,22.8,25.4,"19:33:20",1
"23/09/11","19:50",0.0,23.8,92.8,1006.4,334.4,0.6,1.2,318.4,0.00,22.6,25.3,"19:49:52",1
"23/09/11","20:00",0.0,23.7,93.0,1006.4,308.0,1.0,1.7,322.4,0.00,22.5,25.2,"19:51:52",1
"23/09/11","20:10",0.0,23.7,93.2,1006.7,279.6,0.7,1.1,259.4,0.00,22.6,25.3,"20:07:28",1
"23/09/11","20:20",0.0,23.8,93.3,1006.7,315.3,1.1,2.0,335.5,0.00,22.7,25.2,"20:16:16",1
"23/09/11","20:30",0.0,23.9,93.4,1006.7,324.4,0.8,1.2,330.5,0.00,22.8,24.9,"20:25:44",1
"23/09/11","20:40",0.0,23.9,93.5,1006.2,322.5,0.7,1.1,341.1,0.00,22.8,25.1,"20:31:04",1
"23/09/11","20:50",0.0,23.8,93.5,1006.9,319.5,0.8,1.6,339.3,0.00,22.7,25.2,"20:46:32",1
"23/09/11","21:00",0.0,23.7,93.6,1006.2,311.9,0.8,1.3,329.1,0.00,22.6,25.0,"20:52:40",1
"23/09/11","21:10",0.0,23.6,93.7,1006.7,302.5,0.7,1.4,325.6,0.00,22.6,25.2,"21:00:56",1
"23/09/11","21:20",0.0,23.6,93.8,1006.4,297.5,1.0,1.4,306.8,0.00,22.6,25.0,"21:14:24",1
"23/09/11","21:30",0.0,23.5,93.9,1006.9,327.6,1.1,1.8,333.4,0.00,22.5,25.2,"21:23:44",1
"23/09/11","21:40",0.0,23.4,94.0,1006.4,315.7,0.8,2.0,325.4,0.00,22.4,25.1,"21:34:24",1
"23/09/11","21:50",0.0,23.3,94.1,1006.7,319.9,1.0,1.6,333.7,0.00,22.3,25.2,"21:41:36",1
"23/09/11","22:00",0.0,23.2,94.2,1006.4,314.3,0.8,1.1,317.4,0.00,22.3,25.1,"21:59:04",1
"23/09/11","22:10",0.0,23.2,94.3,1006.7,310.7,0.8,1.6,316.3,0.00,22.3,25.1,"22:03:44",1
"23/09/11","22:20",0.0,23.2,94.4,1006.2,322.6,0.8,1.7,337.0,0.00,22.3,25.0,"22:18:16",1
"23/09/11","22:30",0.0,23.2,94.4,1006.4,323.7,1.1,1.8,329.2,0.00,22.3,25.0,"22:26:00",1
"23/09/11","22:40",0.0,23.1,94.5,1006.4,308.6,0.8,1.4,322.2,0.00,22.2,25.0,"22:39:52",1
"23/09/11","22:50",0.0,23.1,94.6,1006.7,321.6,1.2,2.4,327.3,0.00,22.2,24.9,"22:47:36",1
"23/09/11","23:00",0.0,23.1,94.7,1006.2,330.5,1.0,1.7,338.0,0.00,22.2,24.8,"22:50:16",1
"23/09/11","23:10",0.0,22.9,94.7,1006.2,305.8,0.8,1.1,315.3,0.00,22.0,25.0,"23:00:48",1
"23/09/11","23:20",0.0,22.8,94.8,1006.2,296.6,0.5,1.0,311.3,0.00,22.0,24.9,"23:10:24",1
"23/09/11","23:30",0.0,22.7,94.9,1006.4,311.6,0.8,1.1,316.2,0.00,21.9,25.1,"23:20:32",1
"23/09/11","23:40",0.0,22.7,94.9,1006.4,311.1,0.8,1.0,336.6,0.00,21.9,24.7,"23:31:36",1
"23/09/11","23:50",0.0,22.8,95.1,1006.4,276.2,0.8,1.2,260.4,0.00,22.0,24.9,"23:43:04",1
"23/09/11","24:00",0.0,22.8,95.1,1006.7,303.2,0.6,1.4,352.1,0.00,22.0,24.7,"23:50:02",1
